FW8003 Weather Reports


Display with metric or nautical units.
time (UTC)temp
F
wind
direction
speed
MPH
gust
MPH
rain 1hr
in
rain 24hr
in
rain mn
in
humidity
%
barometer
mb
20260505000039 77 197 2.0 11.0 0.00 0.00 0.00 71 1008.9
20260504235517 78 205 1.0 11.0 0.00 0.00 0.00 71 1009.0
20260504235017 78 88 3.0 11.0 0.00 0.00 0.00 70 1009.0
20260504234539 78 0 1.0 5.0 0.00 0.00 0.00 70 1008.9
20260504234016 78 191 2.0 8.0 0.00 0.00 0.00 70 1009.0
20260504233516 78 230 2.0 8.0 0.00 0.00 0.00 70 1009.1
20260504233045 78 254 2.0 8.0 0.00 0.00 0.00 69 1009.0
20260504232518 78 82 2.0 9.0 0.00 0.00 0.00 69 1009.0
20260504232015 79 178 3.0 9.0 0.00 0.00 0.00 68 1009.0
20260504231537 79 234 2.0 7.0 0.00 0.00 0.00 68 1009.1
20260504231016 79 151 2.0 10.0 0.00 0.00 0.00 68 1009.2
20260504230516 79 192 4.0 10.0 0.00 0.00 0.00 67 1009.3
20260504230043 79 164 2.0 9.0 0.00 0.00 0.00 68 1009.3
20260504225517 80 217 1.0 7.0 0.00 0.00 0.00 68 1009.3
20260504225017 80 197 1.0 7.0 0.00 0.00 0.00 68 1009.3
20260504224536 80 154 2.0 7.0 0.00 0.00 0.00 67 1009.3
20260504224017 80 117 1.0 5.0 0.00 0.00 0.00 68 1009.3
20260504223517 80 159 1.0 6.0 0.00 0.00 0.00 67 1009.4
20260504223034 80 204 0.0 9.0 0.00 0.00 0.00 68 1009.6
20260504222517 79 224 3.0 9.0 0.00 0.00 0.00 66 1009.6
20260504222018 79 161 3.0 11.0 0.00 0.00 0.00 66 1009.5
20260504221538 79 168 3.0 11.0 0.00 0.00 0.00 66 1009.6
20260504221017 80 128 4.0 11.0 0.00 0.00 0.00 66 1009.6
20260504220516 80 205 2.0 7.0 0.00 0.00 0.00 65 1009.8
20260504220038 80 180 1.0 7.0 0.00 0.00 0.00 66 1009.9
20260504215520 80 178 1.0 7.0 0.00 0.00 0.00 65 1009.8
20260504215016 81 143 2.0 9.0 0.00 0.00 0.00 64 1009.8
20260504214542 81 146 2.0 9.0 0.00 0.00 0.00 63 1009.9
20260504214019 81 193 2.0 9.0 0.00 0.00 0.00 65 1010.0
20260504213518 81 250 1.0 6.0 0.00 0.00 0.00 63 1010.2
20260504213041 82 223 2.0 6.0 0.00 0.00 0.00 63 1010.2
20260504212516 82 218 1.0 9.0 0.00 0.00 0.00 64 1010.2
20260504212019 82 239 1.0 9.0 0.00 0.00 0.00 63 1010.3
20260504211534 81 91 1.0 6.0 0.00 0.00 0.00 63 1010.4
20260504211019 81 192 2.0 6.0 0.00 0.00 0.00 64 1010.6
20260504210522 82 0 0.0 7.0 0.00 0.00 0.00 66 1010.6
20260504210050 81 188 1.0 7.0 0.00 0.00 0.00 64 1010.7
20260504205518 81 163 2.0 8.0 0.00 0.00 0.00 63 1010.7
20260504205019 81 190 1.0 12.0 0.00 0.00 0.00 63 1010.7
20260504204543 81 216 4.0 12.0 0.00 0.00 0.00 62 1010.7
20260504204019 81 185 1.0 7.0 0.00 0.00 0.00 65 1011.0
20260504203516 80 244 1.0 7.0 0.00 0.00 0.00 65 1011.1
20260504203039 80 92 1.0 8.0 0.00 0.00 0.00 65 1011.3
20260504202519 79 223 2.0 9.0 0.00 0.00 0.00 66 1011.2
20260504202018 79 194 2.0 9.0 0.00 0.00 0.00 65 1011.4
20260504201536 79 216 3.0 9.0 0.00 0.00 0.00 65 1011.6
20260504201018 79 203 1.0 4.0 0.00 0.00 0.00 66 1011.6
20260504200518 79 224 1.0 7.0 0.00 0.00 0.00 66 1011.7
20260504200050 79 229 1.0 9.0 0.00 0.00 0.00 65 1011.7
20260504195515 80 212 2.0 11.0 0.00 0.00 0.00 65 1011.8
20260504195019 79 196 5.0 11.0 0.00 0.00 0.00 63 1011.9
20260504194538 80 179 3.0 8.0 0.00 0.00 0.00 64 1012.1
20260504194018 80 153 2.0 7.0 0.00 0.00 0.00 63 1012.1
20260504193521 80 134 2.0 9.0 0.00 0.00 0.00 62 1012.1
20260504193039 80 96 1.0 9.0 0.00 0.00 0.00 63 1012.2
20260504192518 80 135 4.0 9.0 0.00 0.00 0.00 61 1012.3
20260504192019 80 200 2.0 9.0 0.00 0.00 0.00 63 1012.3
20260504191537 80 129 4.0 9.0 0.00 0.00 0.00 63 1012.3
20260504191020 80 195 3.0 9.0 0.00 0.00 0.00 64 1012.2
20260504190522 79 116 2.0 8.0 0.00 0.00 0.00 63 1012.4
20260504190032 79 201 2.0 9.0 0.00 0.00 0.00 67 1012.7
20260504185518 79 217 3.0 9.0 0.00 0.00 0.00 65 1012.8
20260504185022 79 76 2.0 10.0 0.00 0.00 0.00 64 1012.8
20260504184539 79 245 2.0 10.0 0.00 0.00 0.00 66 1012.8
20260504184018 78 81 2.0 9.0 0.00 0.00 0.00 64 1012.8
20260504183520 78 113 2.0 10.0 0.00 0.00 0.00 66 1012.9
20260504183038 78 160 2.0 11.0 0.00 0.00 0.00 65 1012.9
20260504182516 78 209 3.0 12.0 0.00 0.00 0.00 65 1012.9
20260504182021 79 180 5.0 12.0 0.00 0.00 0.00 63 1013.0
20260504181538 79 229 3.0 10.0 0.00 0.00 0.00 64 1013.0
20260504181017 79 242 3.0 10.0 0.00 0.00 0.00 63 1013.1
20260504180516 79 145 4.0 11.0 0.00 0.00 0.00 65 1013.1
20260504180037 78 138 1.0 12.0 0.00 0.00 0.00 66 1013.1
20260504175518 79 227 3.0 12.0 0.00 0.00 0.00 65 1013.2
20260504175016 78 234 2.0 7.0 0.00 0.00 0.00 65 1013.2
20260504174535 78 171 2.0 11.0 0.00 0.00 0.00 63 1013.2
20260504174021 78 168 4.0 11.0 0.00 0.00 0.00 63 1013.3
20260504173517 78 163 1.0 6.0 0.00 0.00 0.00 65 1013.4
20260504173034 77 234 2.0 7.0 0.00 0.00 0.00 66 1013.5
20260504172519 77 214 3.0 9.0 0.00 0.00 0.00 67 1013.4
20260504172017 77 157 3.0 9.0 0.00 0.00 0.00 65 1013.6
20260504171535 77 97 1.0 8.0 0.00 0.00 0.00 68 1013.8
20260504171017 77 162 3.0 8.0 0.00 0.00 0.00 65 1013.8
20260504170517 77 149 2.0 6.0 0.00 0.00 0.00 67 1013.9
20260504151021 72 180 3.0 8.0 0.00 0.00 0.00 71 1014.6
20260504150516 72 62 3.0 7.0 0.00 0.00 0.00 71 1014.7
20260504141022 68 124 1.0 6.0 0.00 0.00 0.00 74 1014.6
20260504140519 67 130 1.0 7.0 0.00 0.00 0.00 75 1014.6
20260504130516 60 180 1.0 4.0 0.00 0.00 0.00 84 1014.5
20260504110516 56 0 0.0 0.0 0.00 0.00 0.00 89 1014.0
20260504100520 56 0 0.0 0.0 0.00 0.00 0.00 87 1014.6
20260504081539 58 0 0.0 0.0 0.00 0.00 0.00 83 1015.1
20260504081018 58 0 0.0 0.0 0.00 0.00 0.00 82 1015.2
20260504080524 58 0 0.0 0.0 0.00 0.00 0.00 82 1015.3
20260504050517 62 0 0.0 0.0 0.00 0.00 0.00 75 1017.1
20260504045516 62 0 0.0 0.0 0.00 0.00 0.00 73 1017.0
20260504045025 62 0 0.0 0.0 0.00 0.00 0.00 73 1017.1
20260504044532 62 0 0.0 0.0 0.00 0.00 0.00 74 1017.1
20260504044021 62 0 0.0 1.0 0.00 0.00 0.00 74 1017.2
20260504043518 62 0 0.0 1.0 0.00 0.00 0.00 74 1017.3
20260504043044 62 0 0.0 1.0 0.00 0.00 0.00 73 1017.2
20260504042518 62 156 0.0 1.0 0.00 0.00 0.00 73 1017.1
20260504042017 62 0 0.0 1.0 0.00 0.00 0.00 74 1017.2
20260504041536 63 0 0.0 1.0 0.00 0.00 0.00 73 1017.3
20260504041017 63 0 0.0 1.0 0.00 0.00 0.00 73 1017.1
20260504040519 63 0 0.0 1.0 0.00 0.00 0.00 72 1017.2
20260504040042 64 0 0.0 1.0 0.00 0.00 0.00 73 1017.3
20260504035517 64 0 0.0 1.0 0.00 0.00 0.00 71 1017.2
20260504035019 64 0 0.0 2.0 0.00 0.00 0.00 71 1017.2
20260504034545 64 156 0.0 2.0 0.00 0.00 0.00 70 1017.2
20260504034017 64 168 0.0 2.0 0.00 0.00 0.00 70 1017.3
20260504033517 64 0 0.0 1.0 0.00 0.00 0.00 70 1017.3
20260504033035 64 0 0.0 2.0 0.00 0.00 0.00 70 1017.3
20260504032519 64 151 0.0 2.0 0.00 0.00 0.00 70 1017.3
20260504032018 64 0 0.0 2.0 0.00 0.00 0.00 71 1017.4
20260504031544 64 175 0.0 2.0 0.00 0.00 0.00 71 1017.3
20260504031018 64 137 0.0 2.0 0.00 0.00 0.00 71 1017.2
20260504030517 64 0 0.0 1.0 0.00 0.00 0.00 72 1017.2
20260504030041 65 0 0.0 1.0 0.00 0.00 0.00 72 1017.1
20260504025517 65 0 0.0 1.0 0.00 0.00 0.00 71 1017.0
20260504025021 65 0 0.0 1.0 0.00 0.00 0.00 71 1016.9
20260504024539 65 0 0.0 1.0 0.00 0.00 0.00 68 1016.9
20260504024019 66 0 0.0 0.0 0.00 0.00 0.00 68 1016.9
20260504023517 66 0 0.0 0.0 0.00 0.00 0.00 67 1016.9
20260504023036 66 0 0.0 1.0 0.00 0.00 0.00 67 1016.7
20260504022517 67 0 0.0 1.0 0.00 0.00 0.00 66 1016.6
20260504022018 67 0 0.0 1.0 0.00 0.00 0.00 65 1016.5
20260504021544 67 0 0.0 1.0 0.00 0.00 0.00 66 1016.5
20260504021017 68 0 0.0 1.0 0.00 0.00 0.00 65 1016.5
20260504020516 68 0 0.0 1.0 0.00 0.00 0.00 64 1016.5
20260504020038 68 0 0.0 1.0 0.00 0.00 0.00 64 1016.5
20260504015518 68 0 0.0 1.0 0.00 0.00 0.00 63 1016.5
20260504015020 68 0 0.0 1.0 0.00 0.00 0.00 62 1016.5
20260504014534 69 0 0.0 2.0 0.00 0.00 0.00 62 1016.5
20260504014017 69 0 0.0 2.0 0.00 0.00 0.00 62 1016.4
20260504013517 69 0 0.0 2.0 0.00 0.00 0.00 62 1016.3
20260504013038 69 0 0.0 1.0 0.00 0.00 0.00 62 1016.3
20260504012518 70 0 0.0 1.0 0.00 0.00 0.00 61 1016.3
20260504012016 70 0 0.0 0.0 0.00 0.00 0.00 61 1016.2
20260504011536 70 0 0.0 1.0 0.00 0.00 0.00 60 1016.1
20260504011021 71 0 0.0 1.0 0.00 0.00 0.00 59 1016.1
20260504010516 71 0 0.0 1.0 0.00 0.00 0.00 59 1016.1
20260504010036 71 0 0.0 1.0 0.00 0.00 0.00 59 1016.1
20260504005517 72 0 0.0 1.0 0.00 0.00 0.00 59 1016.1
20260504005016 72 151 0.0 1.0 0.00 0.00 0.00 58 1016.1
20260504004542 73 0 0.0 1.0 0.00 0.00 0.00 57 1016.2
20260504004019 73 0 0.0 1.0 0.00 0.00 0.00 56 1016.1
20260504003516 74 0 0.0 1.0 0.00 0.00 0.00 56 1016.2
20260504003034 74 0 0.0 3.0 0.00 0.00 0.00 54 1016.2
20260504002516 75 0 0.0 3.0 0.00 0.00 0.00 52 1016.2
20260504002016 75 0 0.0 2.0 0.00 0.00 0.00 51 1016.2
20260504001622 75 0 0.0 3.0 0.00 0.00 0.00 50 1016.3
20260504001015 76 185 1.0 3.0 0.00 0.00 0.00 49 1016.2
20260504000517 76 119 0.0 3.0 0.00 0.00 0.00 49 1016.4